Weather observations for the past three days for
Topeka, Philip Billard Municipal Airport
Imperial (Metric)
Date Time (cdt) Wind (mph) Vis. (mi.) Weather Sky Cond. Temperature (ºF) Relative Humidity Wind Chill (°F) Heat Index (°F) Pressure Precipitation (in)
Air Dwpt 6 hour altimeter (in) sea level (mb) 1 hr 3 hr 6 hr
Max. Min.
19 03:53 Calm 10.00 Fair CLR 63 60.1 90% 30.17 1020.8
19 02:53 Calm 10.00 Fair CLR 63 59 87% 30.17 1020.9
19 01:53 Calm 10.00 Fair CLR 64.9 60.1 84% 30.18 1021.1
19 00:53 Calm 10.00 Fair CLR 66 60.1 81 64.9 81% 30.19 1021.4
18 23:53 Calm 10.00 Fair CLR 66.9 59 76% 30.17 1020.9
18 22:53 Calm 10.00 Fair CLR 68 59 73% 30.17 1020.9
18 21:53 E 5 10.00 Fair CLR 71.1 59 66% 30.15 1020.3
18 20:53 E 3 10.00 Fair CLR 73.9 59 60% 30.14 1020.0
18 19:53 NE 7 10.00 Fair CLR 78.1 57 48% 79 30.13 1019.6
18 18:53 NE 8 10.00 Fair CLR 81 57.9 84.9 80.1 45% 81 30.14 1019.8
18 17:53 E 7 10.00 Fair CLR 82 59 46% 82 30.15 1020.2
18 16:53 NE 8 10.00 Fair CLR 84 59 43% 84 30.17 1020.8
18 15:53 NE 8 10.00 Fair CLR 84 57.9 41% 83 30.18 1021.2
18 14:53 Vrbl 7 10.00 A Few Clouds FEW055 84 59 43% 84 30.19 1021.6
18 13:53 Vrbl 5 10.00 Mostly Cloudy SCT050 BKN060 82 59 46% 82 30.2 1021.8
18 12:53 Calm 10.00 A Few Clouds FEW050 81 59 82.9 64 47% 81 30.22 1022.4
18 11:53 NE 5 10.00 Fair CLR 81 59 47% 81 30.22 1022.7
18 10:53 E 3 10.00 Fair CLR 78.1 62.1 58% 80 30.22 1022.7
18 09:53 E 3 10.00 A Few Clouds FEW065 75 62.1 64% 77 30.22 1022.6
18 08:53 E 5 10.00 A Few Clouds FEW065 72 62.1 71% 30.22 1022.5
18 07:53 Calm 10.00 Fair CLR 70 63 79% 30.21 1022.2
18 06:53 Calm 9.00 Fair CLR 64 62.1 70 62.1 93% 30.19 1021.6
18 05:53 NW 3 10.00 Fair CLR 63 59 87% 30.19 1021.5
18 04:53 Calm 10.00 Fair CLR 64.9 61 87% 30.17 1020.9
18 03:53 Calm 10.00 Fair CLR 64.9 60.1 84% 30.16 1020.5
18 02:53 N 3 10.00 Fair CLR 66 61 84% 30.17 1020.6
18 01:53 Calm 10.00 Fair CLR 68 61 78% 30.17 1020.8
18 00:53 Calm 10.00 Fair CLR 69.1 61 84 68 76% 30.18 1021.2
17 23:53 Calm 10.00 Fair CLR 69.1 62.1 78% 30.17 1020.8
17 22:53 Calm 10.00 Fair CLR 71.1 63 76% 30.15 1020.3
17 21:53 NW 3 10.00 Fair CLR 73.9 64 71% 30.13 1019.7
17 20:53 N 5 10.00 Fair CLR 75.9 63 64% 78 30.11 1018.7
17 19:53 N 7 10.00 Fair CLR 81 63 54% 82 30.08 1017.9
17 18:53 N 5 10.00 Fair CLR 84 63 88 82.9 49% 85 30.07 1017.4
17 17:53 N 10 10.00 Fair CLR 86 62.1 45% 87 30.06 1017.2
17 16:53 NE 14 10.00 Partly Cloudy FEW048 SCT080 87.1 64.9 48% 89 30.08 1017.7
17 15:53 NE 10 10.00 A Few Clouds FEW100 87.1 63 45% 88 30.09 1018.1
17 14:53 N 9 10.00 A Few Clouds FEW100 87.1 64.9 48% 89 30.1 1018.3
17 13:53 N 10 10.00 Fair CLR 87.1 64.9 48% 89 30.1 1018.2
17 12:53 NE 8 G 18 10.00 Fair CLR 84.9 66 84.9 68 53% 87 30.1 1018.5
17 11:53 N 10 10.00 Fair CLR 82.9 64.9 55% 85 30.1 1018.3
17 10:53 Vrbl 3 10.00 Partly Cloudy SCT120 79 66.9 67% 81 30.1 1018.5
17 09:53 Vrbl 3 10.00 Overcast OVC090 75 64.9 71% 77 30.12 1019.0
17 08:53 Calm 10.00 Mostly Cloudy BKN080 73.9 64.9 74% 30.09 1018.3
17 07:53 N 5 10.00 Fair CLR 70 64.9 84% 30.05 1016.7
17 05:53 N 5 10.00 Fair CLR 66 63 90% 30.02 1015.7
17 04:53 N 6 10.00 Fair CLR 66.9 64 91% 29.99 1014.5
17 03:53 N 5 10.00 Fair CLR 68 64 87% 29.98 1014.4
17 02:53 N 3 10.00 Fair CLR 69.1 64.9 87% 29.97 1014.0
17 01:53 NE 5 10.00 Fair CLR 71.1 64.9 81% 29.97 1013.9
17 00:53 N 6 10.00 Fair CLR 71.1 66 82.9 71.1 84% 29.98 1014.2
16 23:53 NE 7 10.00 Fair CLR 73 66.9 81% 29.97 1013.8
16 21:53 N 9 10.00 Fair CLR 77 71.1 82% 79 29.94 1013.1
16 20:53 N 6 10.00 Fair CLR 78.1 72 82% 80 29.92 1012.4
16 19:53 NE 7 10.00 Fair CLR 82 73 74% 87 29.9 1011.7
16 18:53 NE 10 10.00 A Few Clouds FEW021 84 73 87.1 82.9 70% 90 29.91 1011.9
16 17:53 NE 8 10.00 A Few Clouds FEW021 84.9 75 72% 93 29.92 1012.1
16 16:53 NE 12 10.00 A Few Clouds FEW024 FEW034 86 75 70% 95 29.92 1012.2
16 15:53 NE 10 10.00 Partly Cloudy FEW028 SCT046 86 75 70% 95 29.93 1012.3
16 14:53 E 8 10.00 Overcast SCT023 BKN028 OVC035 86 75 70% 95 29.9 1011.3
16 13:53 NE 8 10.00 Partly Cloudy SCT023 SCT028 84.9 73.9 70% 92 29.88 1010.8
16 12:53 N 9 10.00 A Few Clouds FEW015 86 75.9 86 68 72% 96 29.86 1010.0 1.31
16 11:53 N 7 10.00 A Few Clouds FEW009 81 75.9 85% 87 29.86 1009.9
16 10:53 Calm 10.00 Light Rain FEW049 SCT070 BKN100 73.9 71.1 91% 29.86 1010.3 0.01
16 09:53 NW 5 10.00 Light Rain FEW120 71.1 69.1 94% 29.85 1009.8 0.12 1.3
16 08:48 E 12 2.50 Thunderstorm Heavy Rain Fog/Mist SCT042 SCT075 BKN090 70 68 93% 29.87 1010.4 0.12
16 07:53 W 10 G 32 2.50 Thunderstorm Heavy Rain Fog/Mist BKN020 BKN090 OVC110 68 66.9 96% 29.92 1012.3 1.06
16 06:53 NW 6 10.00 Fair CLR 80.1 75.9 90 79 87% 85 29.81 1008.1
16 05:53 W 6 10.00 Fair CLR 80.1 72 76% 84 29.8 1007.8
16 04:53 Calm 10.00 Fair CLR 81 72 74% 85 29.76 1006.5
Date Time (cdt) Wind (mph) Vis. (mi.) Weather Sky Cond. Air Dwpt Max. Min. Relative Humidity Wind Chill (°F) Heat Index (°F) altimeter (in) sea level (mb) 1 hr 3 hr 6 hr
6 hour
Temperature (ºF) Pressure Precipitation (in)